Regional Weather Roundup
Issued by NWS Jackson, KY

Home | Current Version | Previous Version | Graphics & Text | Print | Product List | Glossary On
Versions: 1 2 3 4 5 6 7 8 9 10 11 12 13 14 15 16 17 18 19 20 21 22 23 24 25 26 27 28
000
ASUS43 KJKL 161910
RWRJKL

EAST KENTUCKY HOURLY WEATHER ROUNDUP
NATIONAL WEATHER SERVICE JACKSON KY
200 PM EST THU NOV 16 2017

NOTE: "FAIR" INDICATES FEW OR NO CLOUDS BELOW 12,000 FEET WITH
NO SIGNIFICANT WEATHER AND/OR OBSTRUCTIONS TO VISIBILITY.

* THESE REPORTS ARE NOT UNDER NWS QUALITY CONTROL AND MAY NOT
  REPORT WEATHER SUCH AS PRECIPITATION AND FOG.

KYZ079-080-083-085-087-088-110-112-115-119-120-162000
...EASTERN KENTUCKY...

CITY           SKY/WX    TMP DP  RH WIND       PRES   REMARKS
JACKSON        SUNNY     51  36  56 NW9       30.12F
LONDON         SUNNY     55  35  47 W9        30.13F
SOMERSET*      SUNNY     54  37  54 W8        30.16S
MONTICELLO*    SUNNY     55  40  56 W7G17     30.17F
WILLIAMSBURG*  CLEAR     57  37  47 SW3       30.13S
MIDDLESBORO*   SUNNY     58  35  42 N6        30.12F
HARLAN APT*    CLEAR     57  32  38 SW8       30.10F
PIKE CO APT*     N/A     53  36  52 W9        30.11S
BIG SANDY APT* MOCLDY    53  37  54 NW6       30.12S
MOREHEAD APT*  CLOUDY    37  30  75 NW9       30.20S WCI  31
$$

KYZ035-036-041-042-044-050-067-078-099-162000
...CENTRAL KENTUCKY...

CITY           SKY/WX    TMP DP  RH WIND       PRES   REMARKS
MT STERLING*   CLOUDY    39  34  81 N3        30.20S
FLEMING/MASON* CLOUDY    36  29  78 CALM      30.21S
DANVILLE*      MOSUNNY   43  36  75 N8        30.19S
LEXINGTON      CLOUDY    39  33  79 N7        30.19S WCI  34
FRANKFORT      CLOUDY    38  30  73 CALM      30.20S
LOUISVILLE     CLOUDY    40  32  73 N5        30.22F
GLASGOW*       MOSUNNY   54  40  59 NW5       30.17F
BOWLING GREEN  SUNNY     51  40  65 VRB7      30.19F
$$

KYZ091>093-OHZ055-061-077-WVZ005-015-034-035-042-162000
...SOUTHERN OHIO/WEST VIRGINIA...

CITY           SKY/WX    TMP DP  RH WIND       PRES   REMARKS
COVINGTON      CLOUDY    37  30  75 NW6       30.20S WCI  32
COLUMBUS       CLOUDY    40  32  73 W13       30.14R WCI  32
DAYTON         CLOUDY    37  32  82 W12       30.18S WCI  29
WILMINGTON     CLOUDY    36  30  79 W10       30.18R WCI  28
HUNTINGTON     CLOUDY    43  32  65 NW12      30.16R
CHARLESTON     PTSUNNY   47  33  58 NW13G22   30.11S
PINEVILLE*     MOSUNNY   54  35  47 MISG      30.11S
BECKLEY        MOSUNNY   50  33  52 N14       30.04R
BLUEFIELD      SUNNY     50  29  44 W14G23    30.03S
LOGAN CO APT*    N/A     50  36  57 NW5G14    30.08S
$$

VAZ002-007-008-TNZ017-027-036-066-071-162000
...SOUTHWEST VIRGINIA/EAST TENNESSEE...

CITY           SKY/WX    TMP DP  RH WIND       PRES   REMARKS
WISE*          SUNNY     54  32  43 NW7       30.09S
JONESVILLE*      N/A     59  34  38 CALM      30.12
ABINGDON*      SUNNY     58  35  40 W10G16    30.06F
BRISTOL        SUNNY     59  35  40 SW9       30.08F
KNOXVILLE      MOSUNNY   60  40  47 CALM      30.10F
OAK RIDGE      SUNNY     62  38  40 S5        30.12F
CROSSVILLE     SUNNY     55  36  48 W8        30.14F
NASHVILLE      PTSUNNY   59  40  49 VRB3      30.18F
$$

...KEY TO REMARKS...
VSB - VISIBILITY IN MILES
WCI - WIND CHILL INDEX
HX  - HEAT INDEX

$$




USA.gov is the U.S. government's official web portal to all federal, state and local government web resources and services.